Home   Weather   Muncie   Past weeks
Flag for USA

Past Weather in Muncie, Indiana, USA — Yesterday and Last 2 Weeks

Now
60 °F

Clear.


Feels Like: 60 °F
Forecast: 60 / 38 °F
Wind: 7 mph from Southwest

Location: Delaware County-Johnson Field

Current Time: Oct 13, 2019 at 10:09:22 pm

Latest Report: Oct 13, 2019 at 8:53 pm


Visibility: 10 mi

Pressure: 29.87 "Hg

Humidity: 39%

Dew Point: 35 °F

Location of MuncieLocation

Past Weather in Muncie — Graph

°F

Muncie Temperature Yesterday

Maximum temperature yesterday: 54 °F (at 2:53 pm)
Minimum temperature yesterday: 36 °F (at 6:53 am)
Average temperature yesterday: 45 °F

High & Low Weather Summary for the Past Weeks

 TemperatureHumidityPressure
High93 °F (Oct 1, 3:53 pm)91% (Sep 29, 9:18 pm)30.32 "Hg (Sep 29, 9:18 pm)
Low36 °F (Oct 12, 6:53 am)25% (Oct 7, 3:53 pm)29.83 "Hg (Oct 13, 4:53 pm)
Average66 °F66%30.07 "Hg
* Reported Sep 28 8:53 pm — Oct 13 8:53 pm, Muncie. Weather by CustomWeather, © 2019

Note: Actual official high and low records may vary slightly from our data, if they occured in-between our weather recording intervals... More about our weather records

Advertising

Muncie Weather History for the Previous 24 Hours

Scroll right to see more
 ConditionsComfort  
Time TempWeatherWind HumidityBarometerVisibility
8:53 pm
Sun, Oct 13
60 °FClear.7 mph39%29.87 "Hg10 mi
7:53 pm63 °FClear.9 mph34%29.86 "Hg10 mi
6:53 pm65 °FSunny.12 mph32%29.84 "Hg10 mi
5:53 pm68 °FSunny.15 mph27%29.83 "Hg10 mi
4:53 pm69 °FSunny.12 mph27%29.83 "Hg10 mi
3:53 pm68 °FSunny.12 mph30%29.84 "Hg10 mi
2:53 pm66 °FSunny.15 mph33%29.86 "Hg10 mi
1:53 pm66 °FSunny.12 mph33%29.89 "Hg10 mi
12:53 pm62 °FSunny.9 mph39%29.91 "Hg10 mi
11:53 am58 °FSunny.14 mph43%29.93 "Hg10 mi
10:53 am56 °FSunny.13 mph46%29.94 "Hg10 mi
9:53 am51 °FSunny.13 mph52%29.95 "Hg10 mi
8:53 am47 °FSunny.12 mph59%29.95 "Hg10 mi
7:53 am43 °FSunny.7 mph68%29.96 "Hg10 mi
6:53 am44 °FClear.7 mph65%29.96 "Hg10 mi
5:53 am44 °FClear.8 mph63%29.96 "Hg10 mi
4:53 am44 °FClear.6 mph63%29.97 "Hg10 mi
3:53 am45 °FClear.7 mph58%29.98 "Hg10 mi
2:53 am46 °FClear.9 mph58%29.98 "Hg10 mi
1:53 am46 °FClear.9 mph58%29.98 "Hg10 mi
12:53 am47 °FClear.9 mph56%30.00 "Hg10 mi
11:53 pm
Sat, Oct 12
47 °FClear.13 mph56%30.00 "Hg10 mi
10:53 pm47 °FClear.9 mph54%30.01 "Hg10 mi
Weather by CustomWeather, © 2019

See weather overview